Regional Weather Roundup
Issued by NWS

Home | Current Version | Previous Version | Graphics & Text | Print | Product List | Glossary Off
Versions: 1 2 3 4 5 6 7 8 9 10 11 12 13 14 15 16 17 18 19 20 21 22 23 24 25 26 27 28 29 30 31 32 33 34 35 36 37 38 39 40 41 42 43 44 45 46 47 48 49 50

000
ASUS43 KMKX 291611
RWRWI

WISCONSIN REGIONAL WEATHER ROUNDUP
NATIONAL WEATHER SERVICE MILWAUKEE/SULLIVAN WI
1100 AM CDT TUE JUL 29 2014

NOTE: "FAIR" INDICATES FEW OR NO CLOUDS BELOW 12,000 FEET WITH NO
SIGNIFICANT WEATHER AND/OR OBSTRUCTIONS TO VISIBILITY.

WIZ001-002-006>008-014>016-023>028-291700-
NORTHWEST WISCONSIN

CITY           SKY/WX    TMP DP  RH WIND       PRES   REMARKS
SUPERIOR ARPT  PTSUNNY   69  61  74 W6        30.05F
ASHLAND        PTSUNNY   69  59  70 VRB3      30.05F
HAYWARD        PTSUNNY   70  55  59 VRB3      30.08F
SIREN          MOSUNNY   72  58  62 W6          N/A
RICE LAKE      NOT AVBL
LADYSMITH      SUNNY     71  55  56 NW7       30.10S
EAU CLAIRE     SUNNY     73  57  57 W9        30.08F
MENOMONIE      SUNNY     73  57  57 W7        30.10S
NEW RICHMOND   SUNNY     73  58  60 W8        30.11F
OSCEOLA        SUNNY     72  61  67 W10       30.14S
$$

WIZ003>005-009-010-017-018-291700-
NORTH CENTRAL WISCONSIN

CITY           SKY/WX    TMP DP  RH WIND       PRES   REMARKS
WOODRUFF       MOSUNNY   72  58  61 N8        30.06S
RHINELANDER    SUNNY     67  55  65 NW5       30.06F
EAGLE RIVER    MOSUNNY   67  52  57 N12       30.04S
LAND O LAKES   PTSUNNY   66  53  63 NW6       30.05S
PHILLIPS       MOSUNNY   66  56  70 CALM      30.08S
TOMAHAWK       SUNNY     67  54  64 N5        30.07S
MEDFORD        PTSUNNY   67  55  66 NW8       30.08S
MERRILL        SUNNY     67  57  69 N7        30.06S
$$

WIZ029-030-035-036-043>047-291700-
CENTRAL WISCONSIN

CITY           SKY/WX    TMP DP  RH WIND       PRES   REMARKS
WAUSAU         MOSUNNY   70  55  59 NW9       30.05S
MOSINEE        SUNNY     66  57  72 NW9       30.07S
MARSHFIELD     MOSUNNY   73  54  51 NW13      30.07S
STEVENS POINT  MOSUNNY   68  53  60 NW8       30.06S
WAUPACA        MOSUNNY   72  54  53 NW8       30.04S
WAUTOMA        MOSUNNY   71  54  55 NW9       30.06S
WISC RAPIDS    SUNNY     73  53  49 W8        30.07S
CAMP DOUGLAS   SUNNY     72  59  64 NW8       30.05F
$$

WIZ011>013-019>022-031-037>040-048>050-291700-
NORTHEAST WISCONSIN

CITY           SKY/WX    TMP DP  RH WIND       PRES   REMARKS
ANTIGO         MOSUNNY   67  56  68 NW7       30.05S
STURGEON BAY   CLOUDY    64  54  68 NW7       30.01S
GREEN BAY      PTSUNNY   72  57  59 VRB6      30.01F
MANITOWOC      SUNNY     71  56  58 NW9       30.01S
APPLETON       PTSUNNY   66  52  59 W9        30.04S
CLINTONVILLE   MOSUNNY   70  52  52 W7        30.02F
OSHKOSH        CLOUDY    69  55  60 NW8       30.03F
$$

WIZ032>034-041-042-053>061-291700-
SOUTHWEST WISCONSIN

CITY           SKY/WX    TMP DP  RH WIND       PRES   REMARKS
LA CROSSE      SUNNY     73  58  59 W7        30.09F
SPARTA         SUNNY     73  54  52 W7        30.09F
VIROQUA        FAIR      71  57  60 NW6       30.10S
BOSCOBEL       SUNNY     77  58  51 NW7       30.09S
PRAIRIE DU CHI SUNNY     73  56  54 W5        30.09F
PLATTEVILLE    FAIR      73  58  60 NW9       30.10S
$$

WIZ056-057-062-063-064-067-068-291700-
SOUTH CENTRAL WISCONSIN

CITY           SKY/WX    TMP DP  RH WIND       PRES   REMARKS
BARABOO/DELLS  SUNNY     73  53  49 N7        30.07S
LONE ROCK      SUNNY     76  59  55 NW9       30.08S
WATERTOWN      MOSUNNY   70  56  59 N8        30.05S
MADISON        MOSUNNY   74  57  55 N8        30.06F
MIDDLETON      FAIR      72  56  56 NW10G21   30.07F
MONROE         SUNNY     72  55  56 NW8       30.08R
JANESVILLE     SUNNY     73  54  49 N8        30.06S
$$

WIZ051-052-058>065-066-070>072-291700-
SOUTHEAST WISCONSIN

CITY           SKY/WX    TMP DP  RH WIND       PRES   REMARKS
MILWAUKEE      MOSUNNY   72  55  55 NW9       30.03S
WAUKESHA       SUNNY     70  55  60 W12       30.05F
MILWAUKEE/TIMM NOT AVBL
RACINE         MOSUNNY   72  57  59 W9        30.05S
BURLINGTON     SUNNY     70  56  61 NW9       30.04F
KENOSHA        SUNNY     72  58  61 NW12G17   30.04S
FOND DU LAC    SUNNY     71  54  54 NW10      30.04S
SHEBOYGAN      SUNNY     69  57  65 W6        30.02S
WEST BEND      PTSUNNY   68  54  60 NW10      30.04R
JUNEAU         MOSUNNY   69  51  51 N7        30.06S
$$

LSZ147-162-291700-
LAKE SUPERIOR

STATION/POSITION TIME  TEMP    WIND        PRES    WAVE
                       AIR SEA DIR/SP/G            HT/PER
                 (UTC) (F)     (DEG/KT/KT) (MB)    (FT/S)
W MID LAKE BUOY  1550   50 44  250/ 10/ 10 1016.7F   1/ 3
PORT WING        1540   67     240/  8/ 11 1017.3F
SAXON HARBOR     1500          200/  5/  8 1017.6F
$$

LMZ867-665-643>646-291700-
LAKE MICHIGAN

STATION/POSITION TIME  TEMP    WIND        PRES    WAVE
                       AIR SEA DIR/SP/G            HT/PER
                 (UTC) (F)     (DEG/KT/KT) (MB)    (FT/S)
N MID LAKE BUOY  1550   56 54  240/  4/  4 1014.6F   1
NORTHPORT PIER   1500   62     320/  8/ 11 1015.2F
SISTER BAY       1540   66     340/  8/  9   N/A
KEWAUNEE LAKESHO 1500   66     310/  6/ 10 1016.6F
SHEBOYGAN LAKESH 1600   67      20/  6/  6 1016.7S
PORT WASHINGTON  1500   70     320/  6/ 11 1017.3R
ATWATER BUOY     1600   67     320/  6     1017.7F
MILWAUKEE LAKESH 1500   67     320/  4/ 10   N/A
S MID LAKE BUOY  1550   61 61  300/ 10/ 12 1017.0R   1
KENOSHA   LAKESH 1600   69     320/ 10/ 15 1016.6F
$$

TC  - TEMPERATURE IN CELSIUS
VSB - VISIBILITY IN STATUTE MILES
WCI - WIND CHILL INDEX
HX  - HEAT INDEX



USA.gov is the U.S. government's official web portal to all federal, state and local government web resources and services.